Time,TemperatureF,DewpointF,PressureIn,WindDirection,WindDirectionDegrees,WindSpeedMPH,WindSpeedGustMPH,Humidity,HourlyPrecipIn,Conditions,Clouds,dailyrainin,SoftwareType,DateUTC
2013-01-22 00:04:00,28.8,20.6,30.30,SSE,150,1.0,2.0,71,0.00,,---,0.00,VWS V14.01,2013-01-22 06:04:00,
2013-01-22 00:09:00,28.7,20.2,30.30,SSE,156,1.0,2.0,70,0.00,,---,0.00,VWS V14.01,2013-01-22 06:09:00,
2013-01-22 00:14:00,28.2,20.0,30.31,SSE,156,0.0,2.0,71,0.00,,---,0.00,VWS V14.01,2013-01-22 06:14:00,
2013-01-22 00:19:00,27.4,19.9,30.31,SSE,156,0.0,2.0,73,0.00,,---,0.00,VWS V14.01,2013-01-22 06:19:00,
2013-01-22 00:24:00,26.9,19.7,30.31,WSW,238,0.0,2.0,74,0.00,,---,0.00,VWS V14.01,2013-01-22 06:24:00,
2013-01-22 00:29:00,26.7,19.9,30.31,SSW,204,1.0,2.0,75,0.00,,---,0.00,VWS V14.01,2013-01-22 06:29:00,
2013-01-22 00:34:00,26.6,19.8,30.31,SSW,205,1.0,1.0,75,0.00,,---,0.00,VWS V14.01,2013-01-22 06:34:00,
2013-01-22 00:40:00,26.7,19.9,30.30,SSW,198,1.0,2.0,75,0.00,,---,0.00,VWS V14.01,2013-01-22 06:40:00,
2013-01-22 00:45:00,26.7,19.9,30.30,SE,140,2.0,3.0,75,0.00,,---,0.00,VWS V14.01,2013-01-22 06:45:00,
2013-01-22 00:50:00,26.7,19.9,30.30,SSE,161,2.0,3.0,75,0.00,,---,0.00,VWS V14.01,2013-01-22 06:50:00,
2013-01-22 00:55:00,26.9,20.0,30.30,SE,138,3.0,4.0,75,0.00,,---,0.00,VWS V14.01,2013-01-22 06:55:00,
2013-01-22 01:00:00,27.0,20.1,30.30,SSE,162,4.0,5.0,75,0.00,,---,0.00,VWS V14.01,2013-01-22 07:00:00,
2013-01-22 01:05:00,27.1,20.2,30.30,South,170,1.0,3.0,75,0.00,,---,0.00,VWS V14.01,2013-01-22 07:05:00,
2013-01-22 01:11:00,27.1,20.2,30.30,South,174,1.0,3.0,75,0.00,,---,0.00,VWS V14.01,2013-01-22 07:11:00,
2013-01-22 01:16:00,26.9,20.0,30.30,SSE,150,1.0,3.0,75,0.00,,---,0.00,VWS V14.01,2013-01-22 07:16:00,
2013-01-22 01:21:00,26.8,20.0,30.30,SE,140,2.0,3.0,75,0.00,,---,0.00,VWS V14.01,2013-01-22 07:21:00,
2013-01-22 01:26:00,26.8,20.0,30.30,South,174,2.0,3.0,75,0.00,,---,0.00,VWS V14.01,2013-01-22 07:26:00,
2013-01-22 01:31:00,26.8,20.0,30.30,South,187,1.0,2.0,75,0.00,,---,0.00,VWS V14.01,2013-01-22 07:31:00,
2013-01-22 01:36:00,26.6,19.8,30.30,South,186,2.0,3.0,75,0.00,,---,0.00,VWS V14.01,2013-01-22 07:36:00,
2013-01-22 01:41:00,26.4,19.9,30.30,South,174,2.0,3.0,76,0.00,,---,0.00,VWS V14.01,2013-01-22 07:41:00,
2013-01-22 01:46:00,26.2,20.0,30.30,SSW,194,2.0,3.0,77,0.00,,---,0.00,VWS V14.01,2013-01-22 07:46:00,
2013-01-22 01:52:00,26.1,19.9,30.30,SSW,196,1.0,3.0,77,0.00,,---,0.00,VWS V14.01,2013-01-22 07:52:00,
2013-01-22 01:57:00,25.9,19.7,30.30,South,191,0.0,3.0,77,0.00,,---,0.00,VWS V14.01,2013-01-22 07:57:00,
2013-01-22 02:02:00,25.6,19.7,30.30,SE,142,1.0,1.0,78,0.00,,---,0.00,VWS V14.01,2013-01-22 08:02:00,
2013-01-22 02:07:00,25.5,19.6,30.30,SSE,153,1.0,2.0,78,0.00,,---,0.00,VWS V14.01,2013-01-22 08:07:00,
2013-01-22 02:12:00,25.5,19.6,30.30,SSW,195,2.0,2.0,78,0.00,,---,0.00,VWS V14.01,2013-01-22 08:12:00,
2013-01-22 02:17:00,25.6,19.7,30.31,South,175,1.0,2.0,78,0.00,,---,0.00,VWS V14.01,2013-01-22 08:17:00,
2013-01-22 02:22:00,25.6,19.7,30.30,SSE,158,1.0,2.0,78,0.00,,---,0.00,VWS V14.01,2013-01-22 08:22:00,
2013-01-22 02:27:00,25.5,19.6,30.31,South,173,1.0,2.0,78,0.00,,---,0.00,VWS V14.01,2013-01-22 08:27:00,
2013-01-22 02:32:00,25.5,19.6,30.31,South,186,0.0,1.0,78,0.00,,---,0.00,VWS V14.01,2013-01-22 08:32:00,
2013-01-22 02:37:00,25.4,19.5,30.31,South,184,0.0,1.0,78,0.00,,---,0.00,VWS V14.01,2013-01-22 08:37:00,
2013-01-22 02:43:00,25.3,19.7,30.31,SSE,165,0.0,1.0,79,0.00,,---,0.00,VWS V14.01,2013-01-22 08:43:00,
2013-01-22 02:48:00,25.3,19.7,30.31,South,184,0.0,2.0,79,0.00,,---,0.00,VWS V14.01,2013-01-22 08:48:00,
2013-01-22 02:53:00,25.4,19.8,30.30,SSE,153,2.0,2.0,79,0.00,,---,0.00,VWS V14.01,2013-01-22 08:53:00,
2013-01-22 02:58:00,25.6,19.7,30.31,SE,146,0.0,2.0,78,0.00,,---,0.00,VWS V14.01,2013-01-22 08:58:00,
2013-01-22 03:03:00,25.7,19.8,30.31,SE,146,0.0,1.0,78,0.00,,---,0.00,VWS V14.01,2013-01-22 09:03:00,
2013-01-22 03:08:00,25.8,19.6,30.31,SE,145,0.0,1.0,77,0.00,,---,0.00,VWS V14.01,2013-01-22 09:08:00,
2013-01-22 03:13:00,25.9,20.0,30.31,SE,125,0.0,1.0,78,0.00,,---,0.00,VWS V14.01,2013-01-22 09:13:00,
2013-01-22 03:19:00,25.8,19.9,30.31,SE,125,0.0,1.0,78,0.00,,---,0.00,VWS V14.01,2013-01-22 09:19:00,
2013-01-22 03:24:00,25.5,19.6,30.31,SE,125,0.0,1.0,78,0.00,,---,0.00,VWS V14.01,2013-01-22 09:24:00,
2013-01-22 03:29:00,25.4,19.8,30.31,SE,144,1.0,2.0,79,0.00,,---,0.00,VWS V14.01,2013-01-22 09:29:00,
2013-01-22 03:34:00,25.2,19.6,30.30,SSE,158,1.0,2.0,79,0.00,,---,0.00,VWS V14.01,2013-01-22 09:34:00,
2013-01-22 03:39:00,24.7,19.4,30.31,SSE,166,1.0,2.0,80,0.00,,---,0.00,VWS V14.01,2013-01-22 09:39:00,
2013-01-22 03:45:00,24.1,19.1,30.30,SSE,153,1.0,2.0,81,0.00,,---,0.00,VWS V14.01,2013-01-22 09:45:00,
2013-01-22 03:50:00,23.9,18.9,30.30,South,170,1.0,2.0,81,0.00,,---,0.00,VWS V14.01,2013-01-22 09:50:00,
2013-01-22 03:55:00,23.9,19.2,30.30,South,169,0.0,2.0,82,0.00,,---,0.00,VWS V14.01,2013-01-22 09:55:00,
2013-01-22 04:00:00,23.9,18.9,30.30,SSE,165,0.0,2.0,81,0.00,,---,0.00,VWS V14.01,2013-01-22 10:00:00,
2013-01-22 04:05:00,23.9,18.9,30.30,South,172,0.0,0.0,81,0.00,,---,0.00,VWS V14.01,2013-01-22 10:05:00,
2013-01-22 04:10:00,23.9,18.9,30.30,SSW,196,2.0,2.0,81,0.00,,---,0.00,VWS V14.01,2013-01-22 10:10:00,
2013-01-22 04:15:00,23.9,18.9,30.30,South,188,0.0,2.0,81,0.00,,---,0.00,VWS V14.01,2013-01-22 10:15:00,
2013-01-22 04:21:00,24.1,19.1,30.30,South,191,2.0,2.0,81,0.00,,---,0.00,VWS V14.01,2013-01-22 10:21:00,
2013-01-22 04:26:00,24.3,19.0,30.30,South,191,0.0,2.0,80,0.00,,---,0.00,VWS V14.01,2013-01-22 10:26:00,
2013-01-22 04:31:00,24.3,19.0,30.30,South,191,0.0,0.0,80,0.00,,---,0.00,VWS V14.01,2013-01-22 10:31:00,
2013-01-22 04:36:00,24.4,19.1,30.30,SSW,196,0.0,1.0,80,0.00,,---,0.00,VWS V14.01,2013-01-22 10:36:00,
2013-01-22 04:41:00,24.4,18.8,30.31,SSW,197,0.0,1.0,79,0.00,,---,0.00,VWS V14.01,2013-01-22 10:41:00,
2013-01-22 04:47:00,24.4,18.8,30.31,SSW,197,0.0,1.0,79,0.00,,---,0.00,VWS V14.01,2013-01-22 10:47:00,
2013-01-22 04:52:00,23.9,18.9,30.31,SSW,198,0.0,1.0,81,0.00,,---,0.00,VWS V14.01,2013-01-22 10:52:00,
2013-01-22 04:57:00,23.4,19.0,30.31,SSW,198,0.0,1.0,83,0.00,,---,0.00,VWS V14.01,2013-01-22 10:57:00,
2013-01-22 05:02:00,23.1,18.7,30.31,SSW,198,0.0,0.0,83,0.00,,---,0.00,VWS V14.01,2013-01-22 11:02:00,
2013-01-22 05:07:00,23.1,19.0,30.31,SSW,198,2.0,2.0,84,0.00,,---,0.00,VWS V14.01,2013-01-22 11:07:00,
2013-01-22 05:13:00,22.7,18.6,30.31,NNW,338,1.0,3.0,84,0.00,,---,0.00,VWS V14.01,2013-01-22 11:13:00,
2013-01-22 05:18:00,22.3,18.5,30.31,NNW,347,1.0,3.0,85,0.00,,---,0.00,VWS V14.01,2013-01-22 11:18:00,
2013-01-22 05:23:00,22.3,18.8,30.31,NNW,347,0.0,3.0,86,0.00,,---,0.00,VWS V14.01,2013-01-22 11:23:00,
2013-01-22 05:28:00,22.6,18.8,30.31,NNW,347,0.0,3.0,85,0.00,,---,0.00,VWS V14.01,2013-01-22 11:28:00,
2013-01-22 05:33:00,23.0,19.2,30.31,NNW,347,0.0,0.0,85,0.00,,---,0.00,VWS V14.01,2013-01-22 11:33:00,
2013-01-22 05:38:00,23.1,19.0,30.31,NNW,347,0.0,0.0,84,0.00,,---,0.00,VWS V14.01,2013-01-22 11:38:00,
2013-01-22 05:43:00,22.8,18.7,30.30,ESE,113,0.0,0.0,84,0.00,,---,0.00,VWS V14.01,2013-01-22 11:43:00,
2013-01-22 05:48:00,22.7,18.9,30.30,SE,133,1.0,1.0,85,0.00,,---,0.00,VWS V14.01,2013-01-22 11:48:00,
2013-01-22 05:53:00,22.7,18.9,30.30,SE,133,0.0,1.0,85,0.00,,---,0.00,VWS V14.01,2013-01-22 11:53:00,
2013-01-22 05:59:00,22.9,18.8,30.30,SE,132,0.0,1.0,84,0.00,,---,0.00,VWS V14.01,2013-01-22 11:59:00,
2013-01-22 06:04:00,22.8,19.0,30.31,SE,132,0.0,0.0,85,0.00,,---,0.00,VWS V14.01,2013-01-22 12:04:00,
2013-01-22 06:09:00,22.6,18.8,30.31,SE,133,0.0,0.0,85,0.00,,---,0.00,VWS V14.01,2013-01-22 12:09:00,
2013-01-22 06:14:00,22.3,18.5,30.31,SE,132,0.0,0.0,85,0.00,,---,0.00,VWS V14.01,2013-01-22 12:14:00,
2013-01-22 06:19:00,22.1,18.6,30.32,SE,133,0.0,0.0,86,0.00,,---,0.00,VWS V14.01,2013-01-22 12:19:00,
2013-01-22 06:24:00,21.8,18.3,30.32,NNW,336,0.0,0.0,86,0.00,,---,0.00,VWS V14.01,2013-01-22 12:24:00,
2013-01-22 06:29:00,21.5,18.2,30.31,NNW,336,0.0,0.0,87,0.00,,---,0.00,VWS V14.01,2013-01-22 12:29:00,
2013-01-22 06:34:00,21.7,18.4,30.31,NNW,336,0.0,0.0,87,0.00,,---,0.00,VWS V14.01,2013-01-22 12:34:00,
2013-01-22 06:39:00,22.0,18.7,30.31,NNW,337,0.0,0.0,87,0.00,,---,0.00,VWS V14.01,2013-01-22 12:39:00,
2013-01-22 06:44:00,22.4,19.1,30.31,SE,134,0.0,1.0,87,0.00,,---,0.00,VWS V14.01,2013-01-22 12:44:00,
2013-01-22 06:49:00,22.9,19.4,30.32,SE,134,0.0,1.0,86,0.00,,---,0.00,VWS V14.01,2013-01-22 12:49:00,
2013-01-22 06:54:00,23.2,19.4,30.32,SE,134,0.0,1.0,85,0.00,,---,0.00,VWS V14.01,2013-01-22 12:54:00,
2013-01-22 06:59:00,23.4,19.3,30.32,SE,134,0.0,1.0,84,0.00,,---,0.00,VWS V14.01,2013-01-22 12:59:00,
2013-01-22 07:04:00,23.0,18.6,30.32,SE,134,0.0,0.0,83,0.00,,---,0.00,VWS V14.01,2013-01-22 13:04:00,
2013-01-22 07:10:00,22.2,18.4,30.32,SE,134,0.0,0.0,85,0.00,,---,0.00,VWS V14.01,2013-01-22 13:10:00,
2013-01-22 07:15:00,21.8,18.3,30.32,SE,134,0.0,0.0,86,0.00,,---,0.00,VWS V14.01,2013-01-22 13:15:00,
2013-01-22 07:20:00,21.6,18.3,30.31,SSE,158,0.0,0.0,87,0.00,,---,0.00,VWS V14.01,2013-01-22 13:20:00,
2013-01-22 07:25:00,21.3,17.8,30.31,SSE,166,0.0,0.0,86,0.00,,---,0.00,VWS V14.01,2013-01-22 13:25:00,
2013-01-22 07:30:00,20.9,17.6,30.31,South,177,0.0,0.0,87,0.00,,---,0.00,VWS V14.01,2013-01-22 13:30:00,
2013-01-22 07:35:00,20.8,17.5,30.31,South,187,0.0,0.0,87,0.00,,---,0.00,VWS V14.01,2013-01-22 13:35:00,
2013-01-22 07:41:00,20.8,17.5,30.31,SSW,194,0.0,0.0,87,0.00,,---,0.00,VWS V14.01,2013-01-22 13:41:00,
2013-01-22 07:46:00,20.9,17.6,30.30,South,169,2.0,2.0,87,0.00,,---,0.00,VWS V14.01,2013-01-22 13:46:00,
2013-01-22 07:51:00,21.0,17.8,30.30,SE,142,2.0,2.0,87,0.00,,---,0.00,VWS V14.01,2013-01-22 13:51:00,
2013-01-22 07:56:00,21.8,18.5,30.30,SSE,152,2.0,3.0,87,0.00,,---,0.00,VWS V14.01,2013-01-22 13:56:00,
2013-01-22 08:01:00,22.9,19.4,30.30,SSE,157,1.0,2.0,86,0.00,,---,0.00,VWS V14.01,2013-01-22 14:01:00,
2013-01-22 08:06:00,23.7,19.9,30.30,SSW,200,2.0,2.0,85,0.00,,---,0.00,VWS V14.01,2013-01-22 14:06:00,
2013-01-22 08:12:00,23.9,19.8,30.30,SSW,198,0.0,2.0,84,0.00,,---,0.00,VWS V14.01,2013-01-22 14:12:00,
2013-01-22 08:17:00,24.4,20.5,30.30,SSW,198,0.0,2.0,85,0.00,,---,0.00,VWS V14.01,2013-01-22 14:17:00,
2013-01-22 08:22:00,25.2,21.0,30.30,SSW,198,0.0,2.0,84,0.00,,---,0.00,VWS V14.01,2013-01-22 14:22:00,
2013-01-22 08:27:00,26.5,22.0,30.30,SE,139,0.0,2.0,83,0.00,,---,0.00,VWS V14.01,2013-01-22 14:27:00,
2013-01-22 08:32:00,28.1,23.0,30.30,SE,141,2.0,2.0,81,0.00,,---,0.00,VWS V14.01,2013-01-22 14:32:00,
2013-01-22 08:37:00,29.0,23.3,30.30,SSW,204,1.0,3.0,79,0.00,,---,0.00,VWS V14.01,2013-01-22 14:37:00,
2013-01-22 08:43:00,29.5,24.1,30.30,SE,143,2.0,3.0,80,0.00,,---,0.00,VWS V14.01,2013-01-22 14:43:00,
2013-01-22 08:48:00,30.7,25.0,30.30,SSE,153,2.0,4.0,79,0.00,,---,0.00,VWS V14.01,2013-01-22 14:48:00,
2013-01-22 08:53:00,32.4,25.4,30.30,SE,132,5.0,6.0,75,0.00,,---,0.00,VWS V14.01,2013-01-22 14:53:00,
2013-01-22 08:58:00,33.7,25.3,30.30,SE,143,3.0,7.0,71,0.00,,---,0.00,VWS V14.01,2013-01-22 14:58:00,
2013-01-22 09:03:00,34.8,25.3,30.30,SSE,150,3.0,6.0,68,0.00,,---,0.00,VWS V14.01,2013-01-22 15:03:00,
2013-01-22 09:08:00,35.7,25.5,30.31,SE,146,7.0,8.0,66,0.00,,---,0.00,VWS V14.01,2013-01-22 15:08:00,
2013-01-22 09:13:00,36.3,25.3,30.31,SSE,153,6.0,8.0,64,0.00,,---,0.00,VWS V14.01,2013-01-22 15:13:00,
2013-01-22 09:18:00,36.8,25.4,30.31,SSE,165,4.0,8.0,63,0.00,,---,0.00,VWS V14.01,2013-01-22 15:18:00,
2013-01-22 09:23:00,37.3,25.9,30.30,SSE,163,8.0,8.0,63,0.00,,---,0.00,VWS V14.01,2013-01-22 15:23:00,
2013-01-22 09:28:00,37.3,25.9,30.30,South,174,7.0,10.0,63,0.00,,---,0.00,VWS V14.01,2013-01-22 15:28:00,
2013-01-22 09:33:00,37.4,26.0,30.30,SE,141,5.0,7.0,63,0.00,,---,0.00,VWS V14.01,2013-01-22 15:33:00,
2013-01-22 09:39:00,38.1,26.6,30.31,SW,218,4.0,7.0,63,0.00,,---,0.00,VWS V14.01,2013-01-22 15:39:00,
2013-01-22 09:44:00,38.7,26.8,30.31,SSE,160,4.0,7.0,62,0.00,,---,0.00,VWS V14.01,2013-01-22 15:44:00,
2013-01-22 09:49:00,39.5,27.6,30.31,South,169,4.0,7.0,62,0.00,,---,0.00,VWS V14.01,2013-01-22 15:49:00,
2013-01-22 09:54:00,40.1,27.8,30.31,SSE,160,4.0,7.0,61,0.00,,---,0.00,VWS V14.01,2013-01-22 15:54:00,
2013-01-22 09:59:00,40.8,27.6,30.31,SSE,149,5.0,7.0,59,0.00,,---,0.00,VWS V14.01,2013-01-22 15:59:00,
2013-01-22 10:04:00,41.7,27.6,30.31,South,177,7.0,8.0,57,0.00,,---,0.00,VWS V14.01,2013-01-22 16:04:00,
2013-01-22 10:09:00,42.6,27.6,30.30,South,181,5.0,10.0,55,0.00,,---,0.00,VWS V14.01,2013-01-22 16:09:00,
2013-01-22 10:14:00,43.7,26.8,30.30,SE,125,7.0,14.0,51,0.00,,---,0.00,VWS V14.01,2013-01-22 16:14:00,
2013-01-22 10:19:00,44.7,27.2,30.30,SW,219,13.0,14.0,50,0.00,,---,0.00,VWS V14.01,2013-01-22 16:19:00,
2013-01-22 10:24:00,45.2,26.2,30.29,SSW,203,7.0,17.0,47,0.00,,---,0.00,VWS V14.01,2013-01-22 16:24:00,
2013-01-22 10:30:00,45.5,26.5,30.29,SW,217,7.0,17.0,47,0.00,,---,0.00,VWS V14.01,2013-01-22 16:30:00,
2013-01-22 10:35:00,45.9,26.8,30.29,South,187,10.0,14.0,47,0.00,,---,0.00,VWS V14.01,2013-01-22 16:35:00,
2013-01-22 10:40:00,46.3,27.2,30.29,SW,221,11.0,16.0,47,0.00,,---,0.00,VWS V14.01,2013-01-22 16:40:00,
2013-01-22 10:45:00,46.3,26.7,30.29,South,174,12.0,17.0,46,0.00,,---,0.00,VWS V14.01,2013-01-22 16:45:00,
2013-01-22 10:50:00,46.9,27.7,30.29,SSW,201,10.0,17.0,47,0.00,,---,0.00,VWS V14.01,2013-01-22 16:50:00,
2013-01-22 10:55:00,47.4,27.7,30.28,SSW,200,7.0,21.0,46,0.00,,---,0.00,VWS V14.01,2013-01-22 16:55:00,
2013-01-22 11:00:00,47.9,28.1,30.28,South,186,5.0,21.0,46,0.00,,---,0.00,VWS V14.01,2013-01-22 17:00:00,
2013-01-22 11:05:00,48.1,28.3,30.28,SSW,193,11.0,17.0,46,0.00,,---,0.00,VWS V14.01,2013-01-22 17:05:00,
2013-01-22 11:10:00,48.4,28.6,30.28,South,181,8.0,18.0,46,0.00,,---,0.00,VWS V14.01,2013-01-22 17:10:00,
2013-01-22 11:15:00,49.2,28.8,30.28,SW,221,8.0,18.0,45,0.00,,---,0.00,VWS V14.01,2013-01-22 17:15:00,
2013-01-22 11:20:00,50.1,29.6,30.28,SE,138,7.0,18.0,45,0.00,,---,0.00,VWS V14.01,2013-01-22 17:20:00,
2013-01-22 11:25:00,51.0,28.7,30.28,SSW,210,6.0,18.0,42,0.00,,---,0.00,VWS V14.01,2013-01-22 17:25:00,
2013-01-22 11:30:00,51.5,29.2,30.27,SSE,153,11.0,18.0,42,0.00,,---,0.00,VWS V14.01,2013-01-22 17:30:00,
2013-01-22 11:35:00,52.1,29.1,30.27,South,177,12.0,17.0,41,0.00,,---,0.00,VWS V14.01,2013-01-22 17:35:00,
2013-01-22 11:41:00,52.9,29.9,30.27,South,187,9.0,17.0,41,0.00,,---,0.00,VWS V14.01,2013-01-22 17:41:00,
2013-01-22 11:46:00,53.4,30.3,30.27,SW,226,6.0,19.0,41,0.00,,---,0.00,VWS V14.01,2013-01-22 17:46:00,
2013-01-22 11:51:00,54.1,30.3,30.26,SSE,159,9.0,19.0,40,0.00,,---,0.00,VWS V14.01,2013-01-22 17:51:00,
2013-01-22 11:56:00,54.4,30.0,30.26,South,181,9.0,19.0,39,0.00,,---,0.00,VWS V14.01,2013-01-22 17:56:00,
2013-01-22 12:01:00,54.8,30.3,30.26,South,183,8.0,15.0,39,0.00,,---,0.00,VWS V14.01,2013-01-22 18:01:00,
2013-01-22 12:06:00,55.1,30.6,30.26,SSW,194,8.0,17.0,39,0.00,,---,0.00,VWS V14.01,2013-01-22 18:06:00,
2013-01-22 12:12:00,55.7,31.1,30.26,SSW,195,11.0,17.0,39,0.00,,---,0.00,VWS V14.01,2013-01-22 18:12:00,
2013-01-22 12:17:00,55.9,30.7,30.25,South,176,9.0,17.0,38,0.00,,---,0.00,VWS V14.01,2013-01-22 18:17:00,
2013-01-22 12:22:00,56.2,31.0,30.25,South,191,6.0,17.0,38,0.00,,---,0.00,VWS V14.01,2013-01-22 18:22:00,
2013-01-22 12:27:00,56.3,31.7,30.25,SSW,203,11.0,17.0,39,0.00,,---,0.00,VWS V14.01,2013-01-22 18:27:00,
2013-01-22 12:32:00,56.8,31.5,30.25,South,173,9.0,14.0,38,0.00,,---,0.00,VWS V14.01,2013-01-22 18:32:00,
2013-01-22 12:37:00,57.4,32.0,30.24,SSE,167,9.0,14.0,38,0.00,,---,0.00,VWS V14.01,2013-01-22 18:37:00,
2013-01-22 12:42:00,57.6,32.2,30.24,SSE,165,6.0,15.0,38,0.00,,---,0.00,VWS V14.01,2013-01-22 18:42:00,
2013-01-22 12:47:00,57.9,32.5,30.23,South,191,13.0,17.0,38,0.00,,---,0.00,VWS V14.01,2013-01-22 18:47:00,
2013-01-22 12:53:00,58.1,33.3,30.23,SW,215,9.0,17.0,39,0.00,,---,0.00,VWS V14.01,2013-01-22 18:53:00,
2013-01-22 12:58:00,58.2,33.4,30.22,SSE,158,11.0,17.0,39,0.00,,---,0.00,VWS V14.01,2013-01-22 18:58:00,
2013-01-22 13:03:00,58.5,33.0,30.22,SSW,210,5.0,15.0,38,0.00,,---,0.00,VWS V14.01,2013-01-22 19:03:00,
2013-01-22 13:08:00,58.7,33.8,30.21,SSE,157,7.0,15.0,39,0.00,,---,0.00,VWS V14.01,2013-01-22 19:08:00,
2013-01-22 13:13:00,58.8,33.9,30.21,SSW,195,10.0,15.0,39,0.00,,---,0.00,VWS V14.01,2013-01-22 19:13:00,
2013-01-22 13:18:00,59.0,34.1,30.21,SSE,156,14.0,17.0,39,0.00,,---,0.00,VWS V14.01,2013-01-22 19:18:00,
2013-01-22 13:23:00,59.1,34.2,30.20,SSW,208,10.0,17.0,39,0.00,,---,0.00,VWS V14.01,2013-01-22 19:23:00,
2013-01-22 13:28:00,59.3,34.4,30.20,SSE,148,10.0,17.0,39,0.00,,---,0.00,VWS V14.01,2013-01-22 19:28:00,
2013-01-22 13:33:00,59.5,35.2,30.19,SW,219,6.0,15.0,40,0.00,,---,0.00,VWS V14.01,2013-01-22 19:33:00,
2013-01-22 13:38:00,59.9,35.5,30.19,SW,215,8.0,15.0,40,0.00,,---,0.00,VWS V14.01,2013-01-22 19:38:00,
2013-01-22 13:44:00,60.0,36.2,30.18,South,186,9.0,17.0,41,0.00,,---,0.00,VWS V14.01,2013-01-22 19:44:00,
2013-01-22 13:49:00,60.0,35.6,30.18,SW,229,11.0,18.0,40,0.00,,---,0.00,VWS V14.01,2013-01-22 19:49:00,
2013-01-22 13:54:00,60.3,36.5,30.18,SSW,195,11.0,18.0,41,0.00,,---,0.00,VWS V14.01,2013-01-22 19:54:00,
2013-01-22 13:59:00,60.4,36.6,30.17,SE,142,7.0,18.0,41,0.00,,---,0.00,VWS V14.01,2013-01-22 19:59:00,
2013-01-22 14:04:00,60.7,36.9,30.16,SSE,152,9.0,13.0,41,0.00,,---,0.00,VWS V14.01,2013-01-22 20:04:00,
2013-01-22 14:09:00,60.7,36.3,30.16,SSW,199,10.0,18.0,40,0.00,,---,0.00,VWS V14.01,2013-01-22 20:09:00,
2013-01-22 14:14:00,60.6,36.2,30.16,SSW,200,11.0,18.0,40,0.00,,---,0.00,VWS V14.01,2013-01-22 20:14:00,
2013-01-22 14:19:00,60.9,36.4,30.16,SSW,208,7.0,18.0,40,0.00,,---,0.00,VWS V14.01,2013-01-22 20:19:00,
2013-01-22 14:24:00,61.1,36.6,30.16,South,173,11.0,18.0,40,0.00,,---,0.00,VWS V14.01,2013-01-22 20:24:00,
2013-01-22 14:29:00,61.4,36.9,30.16,SSW,207,7.0,18.0,40,0.00,,---,0.00,VWS V14.01,2013-01-22 20:29:00,
2013-01-22 14:35:00,61.6,37.1,30.16,South,172,8.0,15.0,40,0.00,,---,0.00,VWS V14.01,2013-01-22 20:35:00,
2013-01-22 14:40:00,61.8,37.9,30.16,SSW,201,9.0,15.0,41,0.00,,---,0.00,VWS V14.01,2013-01-22 20:40:00,
2013-01-22 14:45:00,62.1,38.1,30.16,SSW,193,6.0,15.0,41,0.00,,---,0.00,VWS V14.01,2013-01-22 20:45:00,
2013-01-22 14:50:00,62.2,38.2,30.16,SE,146,11.0,15.0,41,0.00,,---,0.00,VWS V14.01,2013-01-22 20:50:00,
2013-01-22 14:55:00,62.3,38.3,30.16,South,172,8.0,16.0,41,0.00,,---,0.00,VWS V14.01,2013-01-22 20:55:00,
2013-01-22 15:00:00,62.8,38.8,30.16,SSW,210,12.0,16.0,41,0.00,,---,0.00,VWS V14.01,2013-01-22 21:00:00,
2013-01-22 15:05:00,62.8,38.8,30.15,SSE,154,7.0,17.0,41,0.00,,---,0.00,VWS V14.01,2013-01-22 21:05:00,
2013-01-22 15:10:00,62.8,38.8,30.15,South,185,11.0,17.0,41,0.00,,---,0.00,VWS V14.01,2013-01-22 21:10:00,
2013-01-22 15:15:00,63.0,39.6,30.15,SSW,205,12.0,17.0,42,0.00,,---,0.00,VWS V14.01,2013-01-22 21:15:00,
2013-01-22 15:20:00,63.1,39.7,30.15,South,180,8.0,17.0,42,0.00,,---,0.00,VWS V14.01,2013-01-22 21:20:00,
2013-01-22 15:26:00,63.3,39.8,30.15,ESE,113,9.0,17.0,42,0.00,,---,0.00,VWS V14.01,2013-01-22 21:26:00,
2013-01-22 15:31:00,63.1,40.3,30.15,SW,225,8.0,9.0,43,0.00,,---,0.00,VWS V14.01,2013-01-22 21:31:00,
2013-01-22 15:36:00,63.3,40.5,30.14,SE,130,6.0,12.0,43,0.00,,---,0.00,VWS V14.01,2013-01-22 21:36:00,
2013-01-22 15:41:00,63.2,41.0,30.14,SSE,162,7.0,15.0,44,0.00,,---,0.00,VWS V14.01,2013-01-22 21:41:00,
2013-01-22 15:47:00,63.5,41.8,30.15,SSE,153,4.0,15.0,45,0.00,,---,0.00,VWS V14.01,2013-01-22 21:47:00,
2013-01-22 15:52:00,64.0,42.3,30.14,SSE,156,7.0,15.0,45,0.00,,---,0.00,VWS V14.01,2013-01-22 21:52:00,
2013-01-22 15:57:00,64.0,42.3,30.15,SSE,167,9.0,15.0,45,0.00,,---,0.00,VWS V14.01,2013-01-22 21:57:00,
2013-01-22 16:02:00,64.2,42.4,30.15,SSW,195,8.0,8.0,45,0.00,,---,0.00,VWS V14.01,2013-01-22 22:02:00,
2013-01-22 16:07:00,64.3,41.9,30.15,SE,145,10.0,13.0,44,0.00,,---,0.00,VWS V14.01,2013-01-22 22:07:00,
2013-01-22 16:12:00,64.1,41.2,30.15,SE,145,11.0,13.0,43,0.00,,---,0.00,VWS V14.01,2013-01-22 22:12:00,
2013-01-22 16:17:00,63.8,40.9,30.15,SSE,150,9.0,14.0,43,0.00,,---,0.00,VWS V14.01,2013-01-22 22:17:00,
2013-01-22 16:22:00,63.6,40.7,30.14,SE,146,5.0,14.0,43,0.00,,---,0.00,VWS V14.01,2013-01-22 22:22:00,
2013-01-22 16:27:00,63.7,40.8,30.14,SSE,152,7.0,14.0,43,0.00,,---,0.00,VWS V14.01,2013-01-22 22:27:00,
2013-01-22 16:32:00,63.6,40.7,30.14,SE,145,8.0,11.0,43,0.00,,---,0.00,VWS V14.01,2013-01-22 22:32:00,
2013-01-22 16:37:00,63.6,40.7,30.14,SE,131,7.0,14.0,43,0.00,,---,0.00,VWS V14.01,2013-01-22 22:37:00,
2013-01-22 16:42:00,63.6,40.7,30.14,SSE,167,3.0,14.0,43,0.00,,---,0.00,VWS V14.01,2013-01-22 22:42:00,
2013-01-22 16:48:00,63.5,40.6,30.14,SSE,158,9.0,14.0,43,0.00,,---,0.00,VWS V14.01,2013-01-22 22:48:00,
2013-01-22 16:53:00,63.3,40.5,30.14,SSE,150,6.0,14.0,43,0.00,,---,0.00,VWS V14.01,2013-01-22 22:53:00,
2013-01-22 16:58:00,63.1,40.9,30.14,SE,124,6.0,14.0,44,0.00,,---,0.00,VWS V14.01,2013-01-22 22:58:00,
2013-01-22 17:03:00,62.8,40.6,30.14,SSE,162,6.0,10.0,44,0.00,,---,0.00,VWS V14.01,2013-01-22 23:03:00,
2013-01-22 17:08:00,62.8,41.2,30.14,SSE,155,4.0,10.0,45,0.00,,---,0.00,VWS V14.01,2013-01-22 23:08:00,
2013-01-22 17:13:00,62.7,41.1,30.14,SE,135,6.0,10.0,45,0.00,,---,0.00,VWS V14.01,2013-01-22 23:13:00,
2013-01-22 17:18:00,62.4,40.8,30.14,SE,130,4.0,10.0,45,0.00,,---,0.00,VWS V14.01,2013-01-22 23:18:00,
2013-01-22 17:24:00,62.1,41.1,30.15,SE,136,3.0,10.0,46,0.00,,---,0.00,VWS V14.01,2013-01-22 23:24:00,
2013-01-22 17:29:00,61.6,41.2,30.15,SE,124,4.0,10.0,47,0.00,,---,0.00,VWS V14.01,2013-01-22 23:29:00,
2013-01-22 17:34:00,61.1,41.3,30.14,ESE,110,5.0,5.0,48,0.00,,---,0.00,VWS V14.01,2013-01-22 23:34:00,
2013-01-22 17:39:00,60.5,41.3,30.14,ESE,115,3.0,5.0,49,0.00,,---,0.00,VWS V14.01,2013-01-22 23:39:00,
2013-01-22 17:44:00,59.8,41.1,30.14,ESE,120,3.0,6.0,50,0.00,,---,0.00,VWS V14.01,2013-01-22 23:44:00,
2013-01-22 17:49:00,59.1,41.0,30.14,SE,136,5.0,6.0,51,0.00,,---,0.00,VWS V14.01,2013-01-22 23:49:00,
2013-01-22 17:54:00,58.4,40.9,30.14,SE,130,4.0,6.0,52,0.00,,---,0.00,VWS V14.01,2013-01-22 23:54:00,
2013-01-22 17:59:00,57.8,40.8,30.15,ESE,102,3.0,6.0,53,0.00,,---,0.00,VWS V14.01,2013-01-22 23:59:00,
2013-01-22 18:04:00,56.9,40.4,30.15,ESE,108,2.0,3.0,54,0.00,,---,0.00,VWS V14.01,2013-01-23 00:04:00,
2013-01-22 18:09:00,56.3,40.8,30.15,ESE,120,4.0,4.0,56,0.00,,---,0.00,VWS V14.01,2013-01-23 00:09:00,
2013-01-22 18:14:00,56.1,40.6,30.15,East,98,5.0,6.0,56,0.00,,---,0.00,VWS V14.01,2013-01-23 00:14:00,
2013-01-22 18:19:00,55.8,40.8,30.15,East,86,5.0,7.0,57,0.00,,---,0.00,VWS V14.01,2013-01-23 00:19:00,
2013-01-22 18:25:00,55.9,40.9,30.15,ESE,105,6.0,7.0,57,0.00,,---,0.00,VWS V14.01,2013-01-23 00:25:00,
2013-01-22 18:30:00,55.8,40.8,30.15,East,91,5.0,8.0,57,0.00,,---,0.00,VWS V14.01,2013-01-23 00:30:00,
2013-01-22 18:35:00,55.8,40.8,30.15,East,98,6.0,8.0,57,0.00,,---,0.00,VWS V14.01,2013-01-23 00:35:00,
2013-01-22 18:40:00,55.4,40.9,30.15,East,84,5.0,8.0,58,0.00,,---,0.00,VWS V14.01,2013-01-23 00:40:00,
2013-01-22 18:45:00,55.3,40.8,30.15,ESE,108,5.0,8.0,58,0.00,,---,0.00,VWS V14.01,2013-01-23 00:45:00,
2013-01-22 18:50:00,55.0,40.5,30.16,ESE,107,4.0,8.0,58,0.00,,---,0.00,VWS V14.01,2013-01-23 00:50:00,
2013-01-22 18:55:00,54.5,40.5,30.16,ESE,102,5.0,8.0,59,0.00,,---,0.00,VWS V14.01,2013-01-23 00:55:00,
2013-01-22 19:00:00,53.9,40.3,30.16,ESE,110,5.0,8.0,60,0.00,,---,0.00,VWS V14.01,2013-01-23 01:00:00,
2013-01-22 19:05:00,54.1,40.5,30.16,ESE,103,5.0,8.0,60,0.00,,---,0.00,VWS V14.01,2013-01-23 01:05:00,
2013-01-22 19:10:00,54.1,40.5,30.16,East,96,4.0,8.0,60,0.00,,---,0.00,VWS V14.01,2013-01-23 01:10:00,
2013-01-22 19:15:00,53.9,40.8,30.16,East,93,6.0,8.0,61,0.00,,---,0.00,VWS V14.01,2013-01-23 01:15:00,
2013-01-22 19:20:00,53.7,40.6,30.16,ESE,104,5.0,8.0,61,0.00,,---,0.00,VWS V14.01,2013-01-23 01:20:00,
2013-01-22 19:25:00,53.6,40.9,30.15,ESE,102,6.0,8.0,62,0.00,,---,0.00,VWS V14.01,2013-01-23 01:25:00,
2013-01-22 19:31:00,53.4,41.1,30.16,ESE,103,6.0,8.0,63,0.00,,---,0.00,VWS V14.01,2013-01-23 01:31:00,
2013-01-22 19:36:00,53.5,41.2,30.16,East,91,6.0,9.0,63,0.00,,---,0.00,VWS V14.01,2013-01-23 01:36:00,
2013-01-22 19:41:00,53.5,41.2,30.15,East,95,6.0,9.0,63,0.00,,---,0.00,VWS V14.01,2013-01-23 01:41:00,
2013-01-22 19:46:00,53.4,41.1,30.15,East,88,6.0,9.0,63,0.00,,---,0.00,VWS V14.01,2013-01-23 01:46:00,
2013-01-22 19:51:00,53.1,41.3,30.15,East,95,6.0,9.0,64,0.00,,---,0.00,VWS V14.01,2013-01-23 01:51:00,
2013-01-22 19:57:00,53.2,41.3,30.15,ESE,104,5.0,9.0,64,0.00,,---,0.00,VWS V14.01,2013-01-23 01:57:00,
2013-01-22 20:02:00,53.2,41.3,30.15,ESE,110,5.0,7.0,64,0.00,,---,0.00,VWS V14.01,2013-01-23 02:02:00,
2013-01-22 20:07:00,52.6,41.2,30.15,ESE,110,6.0,7.0,65,0.00,,---,0.00,VWS V14.01,2013-01-23 02:07:00,
2013-01-22 20:12:00,52.3,41.3,30.15,East,84,5.0,8.0,66,0.00,,---,0.00,VWS V14.01,2013-01-23 02:12:00,
2013-01-22 20:17:00,52.4,41.4,30.15,ESE,108,6.0,9.0,66,0.00,,---,0.00,VWS V14.01,2013-01-23 02:17:00,
2013-01-22 20:22:00,52.7,41.7,30.15,East,98,8.0,9.0,66,0.00,,---,0.00,VWS V14.01,2013-01-23 02:22:00,
2013-01-22 20:27:00,52.6,41.6,30.15,ESE,103,9.0,10.0,66,0.00,,---,0.00,VWS V14.01,2013-01-23 02:27:00,
2013-01-22 20:32:00,52.3,41.3,30.15,East,94,6.0,8.0,66,0.00,,---,0.00,VWS V14.01,2013-01-23 02:32:00,
2013-01-22 20:38:00,52.1,41.5,30.15,East,100,5.0,9.0,67,0.00,,---,0.00,VWS V14.01,2013-01-23 02:38:00,
2013-01-22 20:43:00,51.8,41.2,30.15,East,98,8.0,10.0,67,0.00,,---,0.00,VWS V14.01,2013-01-23 02:43:00,
2013-01-22 20:48:00,51.5,41.3,30.16,ESE,105,6.0,10.0,68,0.00,,---,0.00,VWS V14.01,2013-01-23 02:48:00,
2013-01-22 20:53:00,51.4,41.2,30.16,ESE,105,8.0,10.0,68,0.00,,---,0.00,VWS V14.01,2013-01-23 02:53:00,
2013-01-22 20:58:00,51.5,41.3,30.16,East,89,6.0,10.0,68,0.00,,---,0.00,VWS V14.01,2013-01-23 02:58:00,
2013-01-22 21:03:00,51.0,40.8,30.16,East,100,6.0,7.0,68,0.00,,---,0.00,VWS V14.01,2013-01-23 03:03:00,
2013-01-22 21:08:00,50.9,40.7,30.16,ESE,113,4.0,8.0,68,0.00,,---,0.00,VWS V14.01,2013-01-23 03:08:00,
2013-01-22 21:13:00,50.8,40.6,30.16,ENE,75,4.0,8.0,68,0.00,,---,0.00,VWS V14.01,2013-01-23 03:13:00,
2013-01-22 21:18:00,51.0,40.8,30.16,ESE,105,6.0,8.0,68,0.00,,---,0.00,VWS V14.01,2013-01-23 03:18:00,
2013-01-22 21:23:00,51.4,40.8,30.16,East,98,4.0,8.0,67,0.00,,---,0.00,VWS V14.01,2013-01-23 03:23:00,
2013-01-22 21:28:00,51.4,40.4,30.17,ESE,122,4.0,8.0,66,0.00,,---,0.00,VWS V14.01,2013-01-23 03:28:00,
2013-01-22 21:33:00,51.2,40.6,30.17,ESE,117,3.0,7.0,67,0.00,,---,0.00,VWS V14.01,2013-01-23 03:33:00,
2013-01-22 21:38:00,51.2,40.6,30.17,ESE,117,4.0,7.0,67,0.00,,---,0.00,VWS V14.01,2013-01-23 03:38:00,
2013-01-22 21:44:00,51.4,40.4,30.17,East,100,6.0,7.0,66,0.00,,---,0.00,VWS V14.01,2013-01-23 03:44:00,
2013-01-22 21:49:00,51.5,40.5,30.17,ESE,103,5.0,8.0,66,0.00,,---,0.00,VWS V14.01,2013-01-23 03:49:00,
2013-01-22 21:54:00,51.1,40.5,30.17,ESE,108,4.0,8.0,67,0.00,,---,0.00,VWS V14.01,2013-01-23 03:54:00,
2013-01-22 21:59:00,51.0,40.4,30.17,East,95,5.0,8.0,67,0.00,,---,0.00,VWS V14.01,2013-01-23 03:59:00,
2013-01-22 22:04:00,51.0,40.4,30.17,East,91,7.0,8.0,67,0.00,,---,0.00,VWS V14.01,2013-01-23 04:04:00,
2013-01-22 22:09:00,50.6,40.1,30.17,East,96,6.0,8.0,67,0.00,,---,0.00,VWS V14.01,2013-01-23 04:09:00,
2013-01-22 22:14:00,50.2,40.1,30.17,East,93,4.0,8.0,68,0.00,,---,0.00,VWS V14.01,2013-01-23 04:14:00,
2013-01-22 22:19:00,50.4,40.2,30.17,ESE,105,6.0,8.0,68,0.00,,---,0.00,VWS V14.01,2013-01-23 04:19:00,
2013-01-22 22:25:00,50.6,40.4,30.17,ESE,107,3.0,8.0,68,0.00,,---,0.00,VWS V14.01,2013-01-23 04:25:00,
2013-01-22 22:30:00,50.0,39.9,30.17,ESE,103,2.0,8.0,68,0.00,,---,0.00,VWS V14.01,2013-01-23 04:30:00,
2013-01-22 22:35:00,49.4,39.7,30.17,ESE,115,1.0,2.0,69,0.00,,---,0.00,VWS V14.01,2013-01-23 04:35:00,
2013-01-22 22:40:00,48.8,39.5,30.17,East,97,0.0,3.0,70,0.00,,---,0.00,VWS V14.01,2013-01-23 04:40:00,
2013-01-22 22:45:00,48.3,39.3,30.17,East,101,0.0,3.0,71,0.00,,---,0.00,VWS V14.01,2013-01-23 04:45:00,
2013-01-22 22:50:00,47.8,39.2,30.17,ESE,120,1.0,3.0,72,0.00,,---,0.00,VWS V14.01,2013-01-23 04:50:00,
2013-01-22 22:55:00,47.4,39.2,30.17,NNE,12,1.0,3.0,73,0.00,,---,0.00,VWS V14.01,2013-01-23 04:55:00,
2013-01-22 23:00:00,46.9,39.1,30.17,NW,323,0.0,3.0,74,0.00,,---,0.00,VWS V14.01,2013-01-23 05:00:00,
2013-01-22 23:03:00,46.8,39.3,30.17,SE,131,1.0,1.0,75,0.00,,---,0.00,VWS V14.01,2013-01-23 05:03:00,
2013-01-22 23:04:00,46.8,39.3,30.17,SE,142,1.0,1.0,75,0.00,,---,0.00,VWS V14.01,2013-01-23 05:04:00,
2013-01-22 23:09:00,46.9,39.4,30.18,SSE,158,1.0,2.0,75,0.00,,---,0.00,VWS V14.01,2013-01-23 05:09:00,
2013-01-22 23:15:00,46.8,39.3,30.17,SSE,149,4.0,4.0,75,0.00,,---,0.00,VWS V14.01,2013-01-23 05:15:00,
2013-01-22 23:20:00,46.5,39.0,30.17,SE,143,3.0,4.0,75,0.00,,---,0.00,VWS V14.01,2013-01-23 05:20:00,
2013-01-22 23:25:00,46.4,39.3,30.18,SE,141,3.0,4.0,76,0.00,,---,0.00,VWS V14.01,2013-01-23 05:25:00,
2013-01-22 23:30:00,46.6,39.8,30.18,East,97,2.0,4.0,77,0.00,,---,0.00,VWS V14.01,2013-01-23 05:30:00,
2013-01-22 23:35:00,46.5,39.4,30.18,ESE,113,0.0,1.0,76,0.00,,---,0.00,VWS V14.01,2013-01-23 05:35:00,
2013-01-22 23:40:00,46.1,38.6,30.18,WNW,283,1.0,2.0,75,0.00,,---,0.00,VWS V14.01,2013-01-23 05:40:00,
2013-01-22 23:45:00,44.6,36.8,30.19,NW,304,3.0,3.0,74,0.00,,---,0.00,VWS V14.01,2013-01-23 05:45:00,
2013-01-22 23:51:00,42.5,35.8,30.19,WNW,301,2.0,3.0,77,0.00,,---,0.00,VWS V14.01,2013-01-23 05:51:00,
2013-01-22 23:56:00,41.7,36.6,30.19,NW,319,1.0,3.0,82,0.00,,---,0.00,VWS V14.01,2013-01-23 05:56:00,